Temp
8 7 7 9 10 10 8 8 8 10 11 10 11 11 12 12 13 13 13 13 12 12 12 12 12 11 10 10 9 9 8 8 8 7 5 5 5 4 3 3 3 3 3 3
6 7 9 10 9 8 7 7 9 10 10 10 11 12 12 13 12 13 13 13 13 13 12 12 12 11 10 10 10 9 8 8 7 6 5 5 4 4 3 3 3 3 3 2
8 9 9 8 7 7 7 8 8 9 11 10 10 11 12 13 13 13 13 13 13 13 13 12 12 11 10 10 9 9 8 8 7 6 5 5 4 3 3 3 3 3 2 2
7 7 8 7 7 7 7 9 8 9 9 9 11 10 11 13 13 13 13 13 13 13 12 12 11 11 11 10 9 8 8 8 7 5 5 5 5 4 4 3 3 3 2 2
7 6 7 7 7 8 9 9 8 9 9 10 11 10 12 13 13 13 13 13 13 12 12 12 11 11 10 9 8 8 8 8 6 5 5 5 5 5 4 3 3 3 3 2
8 7 8 8 7 8 9 8 9 9 9 8 11 10 11 13 13 13 13 13 13 12 12 11 11 10 9 8 8 8 7 7 6 5 5 5 4 4 4 3 3 3 3 2
6 6 7 7 7 8 8 8 8 7 7 7 11 11 12 12 13 13 13 13 12 12 11 11 10 9 9 8 8 8 7 7 5 5 5 5 4 4 3 3 3 3 3 2
6 7 7 7 8 8 8 8 8 6 5 8 11 11 12 13 13 13 13 13 12 12 11 11 10 9 9 8 8 8 7 6 5 5 5 4 4 4 3 3 3 3 3 2
6 7 8 9 8 8 9 8 9 10 11 9 12 13 13 13 13 13 12 12 12 12 11 10 10 9 8 8 8 8 7 6 5 4 5 4 3 3 3 3 3 3 3 3
8 7 8 10 8 9 9 10 9 9 7 6 9 12 13 12 13 13 12 12 12 12 11 10 10 9 9 8 8 8 7 6 5 4 4 4 3 3 3 3 3 3 3 3
7 7 8 9 9 9 9 9 10 11 11 6 7 11 13 13 13 13 12 13 12 11 11 10 9 9 9 8 8 8 7 6 6 5 4 4 3 3 3 3 3 3 3 3
7 7 7 9 9 10 9 10 11 10 10 12 12 11 13 13 13 13 13 12 11 11 11 10 9 9 9 8 8 7 7 6 6 5 4 4 3 3 2 3 3 3 3 3
5 6 7 8 9 10 10 11 11 11 12 12 10 11 13 13 13 13 12 12 11 11 10 10 10 9 9 8 8 7 7 6 6 5 4 4 4 3 3 3 3 3 3 3
3 5 7 7 10 10 10 11 11 12 12 12 12 13 13 12 13 12 12 12 11 11 10 10 10 9 9 9 8 8 7 7 6 5 5 4 4 4 3 3 3 3 3 2
2 5 7 8 10 11 11 12 11 12 12 12 12 13 13 13 12 12 12 12 11 11 11 10 10 9 9 9 8 8 8 7 6 5 5 5 4 4 4 3 3 3 3 2
1 5 7 8 9 10 11 10 12 12 12 13 13 13 13 12 13 12 12 12 12 11 11 11 10 9 9 9 9 8 8 8 7 6 5 5 5 4 4 4 4 3 3 3
-1 0 5 7 9 10 8 10 11 12 13 13 12 13 13 13 12 12 12 12 12 11 11 11 10 10 9 9 9 9 8 8 7 6 6 5 5 4 4 4 4 4 4 4
-1 -1 0 7 8 6 10 11 11 12 13 13 13 13 13 12 12 12 12 12 12 11 11 11 11 10 10 9 9 9 9 8 8 7 6 6 6 5 5 5 4 4 5 4
0 0 1 6 8 9 10 11 11 11 12 13 13 13 13 13 13 12 12 12 12 12 11 11 11 11 10 9 9 9 9 9 8 8 7 6 6 6 5 5 5 5 4 4
3 2 2 4 6 7 10 11 12 12 12 12 13 13 13 13 13 13 12 12 12 12 11 11 11 11 10 10 9 9 9 9 9 8 8 7 7 6 6 5 5 5 5 5
-1 -0 1 2 4 10 10 11 12 12 12 13 13 13 13 13 13 13 12 12 12 12 12 11 11 11 10 10 9 9 8 9 9 8 8 8 7 7 6 6 5 5 5 5
-2 0 2 4 6 9 10 11 11 11 12 12 12 13 13 13 13 13 12 12 12 12 11 11 11 11 10 10 9 9 8 8 9 9 8 8 8 7 7 6 6 6 6 5
-3 -3 -2 1 3 4 7 8 10 11 11 12 12 12 13 13 12 13 12 12 12 12 12 11 11 11 10 10 10 9 8 8 8 9 9 8 8 8 8 7 7 7 6 6
-3 -3 -3 -1 2 4 6 8 9 11 11 12 12 13 13 13 12 13 12 12 12 12 12 11 11 11 10 10 9 9 9 8 9 9 9 9 8 8 8 8 8 8 7 7
-3 -3 -3 -0 1 5 6 9 10 10 11 12 12 12 13 12 12 12 12 12 12 12 12 11 11 11 10 10 9 9 9 9 9 9 9 9 9 8 8 8 8 8 7 8
-4 -3 -3 -2 -1 0 5 8 9 9 10 11 11 12 12 12 12 12 12 12 11 11 11 11 11 10 10 10 9 9 9 9 9 9 9 9 9 9 8 8 8 8 8 8
Height
3091 3092 3084 3092 3094 3098 3101 3103 3103 3099 3101 3112 3109 3108 3107 3106 3105 3107 3108 3108 3107 3107 3108 3107 3107 3107 3105 3104 3102 3098 3095 3092 3088 3084 3080 3077 3073 3068 3064 3060 3058 3054 3050 3049
3083 3065 3081 3089 3093 3095 3097 3099 3097 3093 3097 3107 3105 3103 3101 3102 3101 3102 3102 3103 3102 3102 3102 3102 3102 3102 3102 3101 3098 3095 3091 3089 3085 3080 3078 3075 3070 3065 3061 3058 3055 3052 3050 3049
3058 3062 3078 3082 3085 3090 3090 3093 3091 3092 3095 3100 3102 3098 3098 3096 3095 3097 3099 3098 3098 3097 3097 3098 3097 3098 3098 3097 3094 3091 3087 3085 3081 3077 3076 3073 3067 3062 3059 3056 3053 3050 3048 3049
3056 3064 3069 3074 3076 3083 3082 3085 3091 3092 3095 3093 3096 3093 3092 3092 3092 3093 3093 3093 3092 3092 3092 3093 3093 3095 3094 3093 3090 3087 3084 3082 3078 3076 3074 3071 3066 3062 3058 3056 3053 3049 3049 3048
3041 3052 3061 3062 3064 3074 3071 3085 3088 3090 3089 3092 3086 3092 3086 3086 3086 3087 3087 3088 3087 3088 3088 3089 3090 3092 3091 3089 3086 3083 3081 3078 3075 3074 3073 3070 3066 3062 3058 3056 3053 3051 3050 3049
3042 3049 3054 3055 3065 3069 3074 3082 3084 3085 3086 3084 3083 3086 3076 3080 3082 3082 3083 3083 3084 3085 3086 3087 3088 3088 3087 3084 3082 3080 3078 3074 3073 3073 3072 3069 3066 3062 3059 3056 3054 3053 3051 3050
3040 3040 3047 3052 3056 3065 3070 3076 3080 3081 3077 3076 3079 3081 3073 3075 3077 3078 3079 3080 3082 3083 3085 3086 3086 3084 3083 3081 3079 3078 3075 3072 3072 3071 3070 3068 3066 3063 3060 3056 3054 3052 3051 3051
3027 3032 3031 3037 3042 3050 3058 3065 3066 3074 3072 3072 3077 3071 3068 3070 3073 3072 3075 3077 3079 3081 3082 3083 3082 3082 3080 3078 3077 3075 3073 3071 3071 3070 3069 3068 3066 3063 3060 3056 3054 3051 3051 3051
3017 3019 3023 3027 3039 3047 3049 3050 3060 3066 3065 3066 3066 3066 3064 3065 3067 3068 3071 3074 3076 3078 3080 3080 3079 3079 3077 3076 3075 3074 3072 3071 3069 3069 3069 3067 3066 3064 3060 3057 3055 3053 3053 3053
3012 3016 3017 3025 3034 3037 3035 3049 3058 3059 3064 3067 3061 3060 3061 3062 3064 3065 3067 3072 3074 3076 3077 3077 3077 3077 3075 3074 3073 3072 3071 3069 3069 3069 3068 3067 3066 3064 3062 3058 3056 3055 3055 3055
3012 3013 3015 3025 3015 3016 3033 3039 3047 3053 3053 3055 3061 3055 3059 3060 3061 3063 3066 3069 3071 3074 3075 3075 3075 3075 3074 3073 3072 3071 3070 3069 3069 3069 3069 3068 3066 3065 3063 3061 3058 3057 3057 3057
2998 3011 3012 3004 3013 3019 3026 3030 3036 3039 3042 3045 3048 3048 3055 3056 3056 3061 3064 3067 3070 3072 3073 3073 3073 3074 3073 3072 3071 3071 3070 3069 3069 3069 3069 3068 3068 3067 3065 3063 3061 3059 3059 3059
2997 2999 3007 3004 3010 3014 3015 3019 3025 3031 3038 3036 3043 3042 3051 3052 3054 3059 3061 3065 3067 3070 3070 3070 3071 3072 3072 3071 3071 3071 3070 3069 3069 3069 3069 3069 3069 3069 3067 3067 3064 3063 3063 3063
2983 2987 2988 2986 2988 2997 3003 3012 3020 3027 3030 3030 3032 3038 3045 3050 3053 3056 3060 3062 3065 3067 3068 3069 3069 3071 3071 3070 3071 3071 3070 3068 3069 3069 3069 3069 3070 3070 3069 3069 3069 3067 3067 3067
2977 2975 2981 2983 2990 2995 3000 3004 3011 3015 3019 3022 3028 3033 3040 3044 3049 3053 3056 3059 3062 3064 3066 3067 3067 3069 3070 3070 3071 3071 3071 3069 3069 3070 3070 3070 3071 3072 3071 3071 3071 3071 3070 3069
2973 2969 2977 2982 2986 2990 2993 2998 3003 3008 3015 3020 3025 3030 3037 3042 3046 3049 3052 3055 3058 3060 3063 3065 3066 3067 3068 3069 3070 3071 3071 3070 3069 3070 3071 3071 3072 3074 3074 3074 3074 3075 3074 3073
2970 2970 2971 2970 2977 2986 2989 2987 2994 3001 3006 3014 3019 3023 3032 3036 3039 3044 3048 3051 3054 3057 3060 3063 3064 3065 3066 3068 3069 3070 3071 3071 3070 3070 3072 3073 3073 3075 3076 3076 3077 3077 3078 3077
2967 2971 2970 2965 2978 2979 2970 2983 2990 2995 2999 3006 3014 3019 3026 3032 3037 3040 3044 3047 3050 3054 3057 3060 3062 3063 3065 3067 3068 3069 3071 3071 3071 3071 3072 3074 3075 3075 3077 3079 3079 3079 3080 3081
2960 2966 2965 2963 2964 2968 2969 2973 2981 2986 2993 3000 3007 3014 3021 3028 3033 3034 3038 3043 3047 3050 3054 3057 3060 3061 3063 3066 3067 3068 3070 3071 3072 3072 3073 3074 3075 3077 3078 3080 3082 3081 3082 3083
2955 2960 2965 2961 2961 2961 2964 2971 2981 2987 2986 2994 3003 3009 3015 3021 3022 3027 3032 3039 3043 3047 3051 3054 3057 3059 3061 3064 3065 3067 3068 3070 3072 3073 3074 3075 3076 3077 3079 3080 3082 3083 3084 3085
2954 2957 2957 2961 2962 2960 2966 2971 2977 2977 2982 2990 2997 3003 3009 3012 3017 3026 3030 3034 3038 3042 3047 3051 3054 3056 3059 3061 3064 3066 3067 3069 3071 3073 3074 3076 3077 3077 3079 3081 3081 3084 3086 3087
2952 2953 2954 2957 2956 2959 2961 2971 2973 2979 2981 2985 2991 2998 3002 3009 3016 3021 3025 3029 3033 3038 3043 3047 3050 3053 3056 3059 3061 3063 3065 3068 3069 3072 3074 3076 3077 3078 3079 3081 3083 3084 3086 3088
2948 2950 2952 2954 2953 2956 2958 2959 2964 2970 2974 2982 2988 2994 3000 3005 3011 3016 3020 3025 3029 3034 3038 3043 3046 3050 3053 3055 3058 3061 3063 3065 3067 3070 3073 3075 3076 3078 3080 3082 3083 3085 3086 3088
2944 2948 2949 2948 2948 2950 2951 2955 2959 2964 2970 2976 2983 2989 2995 3000 3006 3011 3015 3020 3024 3029 3033 3039 3043 3046 3049 3051 3054 3058 3060 3062 3064 3067 3071 3073 3075 3077 3079 3081 3083 3086 3087 3089
2944 2945 2942 2943 2940 2943 2946 2949 2953 2961 2966 2970 2977 2984 2990 2996 3001 3006 3010 3015 3019 3024 3029 3034 3039 3043 3046 3048 3051 3054 3057 3060 3062 3064 3068 3071 3073 3075 3077 3079 3081 3084 3086 3089
2941 2939 2938 2934 2940 2941 2943 2946 2950 2956 2960 2964 2971 2979 2984 2990 2997 3001 3005 3009 3013 3018 3024 3029 3034 3038 3041 3044 3047 3050 3054 3057 3060 3062 3064 3067 3070 3073 3075 3077 3080 3082 3084 3086
Wind_Speed
39 38 48 46 43 39 36 25 30 46 41 26 29 28 23 25 20 21 26 21 23 24 25 23 30 28 26 24 26 27 28 26 26 20 14 18 21 19 19 15 14 14 13 5
42 57 47 40 37 35 39 34 37 38 37 31 28 29 22 27 25 27 27 21 26 25 22 27 25 28 21 22 24 26 24 24 23 16 14 19 23 22 18 11 14 15 8 3
57 50 45 40 38 35 35 38 40 36 26 28 28 33 29 18 23 25 26 23 28 23 25 24 21 23 18 22 24 24 21 22 19 13 13 19 23 21 15 10 14 14 3 1
54 53 34 46 45 38 36 36 35 35 33 25 17 15 28 16 16 15 25 23 22 16 17 19 19 15 19 21 23 19 20 19 15 10 11 17 22 16 10 9 12 10 1 4
45 39 51 45 49 44 45 31 33 34 35 33 36 16 25 15 25 23 18 19 15 15 15 16 13 15 19 20 18 16 18 17 12 7 9 14 15 16 9 8 10 12 2 3
44 31 35 47 43 33 31 31 28 33 35 17 35 25 37 26 24 20 13 14 15 14 9 12 12 16 16 15 13 16 14 14 10 5 8 13 13 14 13 8 10 10 1 2
39 44 38 24 40 36 32 32 11 9 13 9 27 24 35 30 19 19 19 13 13 9 7 10 13 12 11 11 13 12 12 11 6 6 6 10 11 13 14 13 5 7 3 3
33 24 47 39 40 41 47 37 15 7 4 4 24 14 26 26 26 24 19 16 11 3 7 12 10 6 9 10 9 9 10 8 4 4 6 9 8 12 13 19 5 6 6 5
36 35 16 44 41 37 42 50 43 24 16 3 16 20 29 31 20 13 20 15 8 5 10 7 4 7 7 5 6 7 7 4 3 3 6 7 7 12 14 15 9 10 8 6
12 19 42 11 39 44 49 20 35 30 8 7 5 11 18 12 18 21 20 11 7 8 8 5 3 9 3 4 4 7 7 3 3 3 5 5 5 11 15 13 12 11 8 8
41 13 4 29 42 53 42 48 28 30 31 8 5 19 25 17 20 23 16 11 9 10 4 5 3 6 3 3 3 5 6 3 3 3 3 3 5 8 14 9 8 8 11 9
61 23 32 35 27 45 45 38 45 31 16 28 25 24 19 15 27 23 15 13 14 7 3 4 2 4 3 2 3 4 5 3 1 4 4 3 4 8 15 12 7 5 10 7
30 50 24 21 27 24 45 50 46 44 25 30 16 25 21 16 17 20 17 17 13 7 4 2 3 1 2 1 2 3 4 2 2 3 3 4 4 8 13 18 20 9 12 12
19 37 56 29 31 41 37 47 47 39 36 28 37 25 26 24 22 22 18 11 11 8 6 2 4 3 1 2 2 1 2 1 4 5 4 5 5 6 6 8 12 15 15 10
7 35 46 61 34 31 37 42 48 43 43 38 33 32 27 23 25 19 16 16 14 13 10 3 3 5 1 3 2 1 2 3 5 7 6 6 5 6 6 6 9 12 14 11
7 17 37 46 52 41 26 16 47 48 44 35 31 34 29 27 25 19 14 17 17 16 13 3 2 5 3 3 4 3 3 4 4 8 7 6 6 7 7 6 7 10 10 9
24 5 17 41 51 49 39 37 31 52 49 45 33 33 28 32 29 18 21 21 20 14 13 5 1 5 3 5 7 4 4 4 4 6 7 8 7 8 10 9 9 9 14 12
31 19 12 23 32 12 35 45 32 36 51 47 39 41 34 32 23 26 25 21 19 15 14 6 0 4 5 5 7 6 4 4 4 4 7 9 9 8 9 11 12 8 11 13
23 19 10 8 33 21 31 34 42 31 45 49 43 41 35 32 30 23 28 24 15 15 9 5 4 5 8 5 7 6 5 3 5 3 4 8 11 10 9 9 12 9 8 9
15 15 15 2 8 14 23 35 27 25 34 45 39 37 34 33 35 34 23 25 22 19 14 12 9 4 9 11 7 5 5 5 4 6 4 6 11 12 10 9 11 11 8 7
11 20 27 21 6 10 19 27 27 34 34 40 44 40 38 37 36 29 27 23 18 17 19 16 12 7 1 12 11 9 6 5 6 7 7 7 10 13 13 11 9 9 9 8
3 4 9 15 9 4 15 26 25 9 24 29 38 42 37 32 33 30 33 25 21 22 23 18 14 11 6 11 14 13 11 8 9 8 11 10 9 11 11 11 9 9 10 10
5 7 9 4 3 7 11 21 20 22 16 20 33 39 30 38 32 31 32 31 27 26 24 22 18 14 10 8 14 13 13 14 13 11 9 13 11 10 11 10 9 8 7 9
22 26 11 7 10 10 11 15 16 21 21 18 21 34 35 29 36 36 32 30 29 26 25 24 20 16 14 9 16 13 11 13 15 13 12 11 14 13 11 9 9 9 10 10
10 19 13 6 1 13 10 20 21 21 24 28 26 27 33 36 34 35 34 33 35 32 28 25 20 20 15 10 18 19 14 11 13 13 13 12 11 13 13 12 11 10 10 11
8 10 16 11 5 2 12 20 21 20 25 23 27 34 35 33 32 34 34 29 32 31 30 26 25 20 16 13 15 24 19 14 11 9 10 13 14 12 13 14 12 11 11 12
Wind_Direction
226 218 217 224 235 241 241 246 255 252 260 261 270 285 272 272 253 257 266 269 266 264 274 282 273 268 277 289 301 301 299 297 309 308 318 334 340 328 325 309 322 329 323 293
212 223 229 237 231 235 238 242 251 262 255 254 260 271 282 273 257 257 264 272 283 272 267 271 275 269 274 293 299 297 295 300 307 307 319 332 337 331 324 316 321 329 319 298
219 229 228 227 229 232 236 236 246 255 260 251 267 276 276 266 250 252 260 284 287 259 267 267 275 266 280 294 293 297 292 303 303 309 324 335 341 335 328 318 333 337 261 213
226 223 223 221 225 227 235 235 241 255 263 263 260 270 280 263 274 267 277 282 296 262 257 265 257 270 288 289 294 295 293 302 304 307 331 341 344 345 344 339 3 13 214 124
221 221 219 219 228 228 237 239 235 244 258 260 267 268 276 269 282 284 288 283 256 266 270 265 253 290 284 293 297 287 294 303 306 317 329 349 357 3 12 3 17 18 159 109
232 230 232 238 226 233 239 233 243 245 257 249 258 267 280 272 280 286 268 281 260 256 256 247 275 289 298 298 284 289 295 303 312 327 337 2 2 9 13 352 15 20 353 163
226 234 233 233 227 217 225 226 233 259 228 226 257 258 258 272 268 268 274 242 221 231 236 262 297 306 299 281 289 288 302 304 332 347 354 8 15 14 19 14 345 1 40 111
209 223 228 219 225 217 215 215 206 198 200 204 247 218 246 255 277 276 246 228 244 279 328 299 294 301 296 285 275 303 312 311 336 343 6 10 9 14 17 12 32 18 99 106
206 225 222 230 217 213 214 221 220 239 234 218 213 234 258 265 265 227 200 221 251 278 297 283 262 341 296 256 284 318 333 330 337 350 16 8 6 17 13 6 57 73 91 111
203 218 223 238 215 216 215 212 211 224 204 224 261 221 236 220 209 210 213 221 258 261 282 261 260 347 250 258 292 335 356 347 344 17 14 14 25 29 24 44 58 73 102 94
212 222 81 202 209 207 211 225 221 221 223 192 208 247 249 257 233 225 213 250 243 249 290 248 230 335 222 262 302 340 354 341 359 51 38 33 46 33 31 61 63 76 117 95
216 234 247 216 211 214 211 214 220 220 208 217 224 240 242 253 237 214 231 217 221 232 308 229 219 301 218 247 299 336 345 319 351 64 65 62 63 47 39 75 93 74 96 99
210 220 231 256 245 216 219 218 220 223 227 216 198 235 239 180 183 214 205 206 217 223 280 237 181 249 225 206 279 327 335 315 96 87 89 94 86 73 88 69 72 81 88 108
209 210 213 217 218 204 212 220 220 220 213 210 213 223 225 220 207 195 200 216 225 242 258 321 197 174 221 177 227 302 347 19 118 116 112 103 105 110 114 79 74 75 75 95
237 215 216 222 218 202 219 218 214 211 217 209 211 220 218 217 193 197 216 209 220 242 242 305 219 181 164 180 187 143 74 65 123 123 121 112 122 133 122 99 89 71 76 89
306 235 216 223 226 223 217 227 222 217 215 215 214 221 222 208 213 204 225 228 228 233 236 265 231 190 178 184 180 151 127 89 101 121 127 122 123 139 136 116 95 102 98 86
314 303 205 219 224 232 240 228 211 216 221 215 205 214 212 205 209 216 223 222 223 222 233 236 12 184 177 186 186 155 145 116 104 116 136 141 133 143 145 131 110 98 96 92
282 268 276 224 210 220 239 228 218 220 218 214 223 218 215 204 217 228 225 217 217 219 229 225 145 181 163 196 186 176 144 146 120 115 138 151 144 151 158 139 126 115 98 99
247 241 247 221 201 234 229 222 220 224 216 215 214 220 218 224 225 227 227 219 217 213 214 226 177 136 191 197 196 171 170 152 144 128 134 158 150 154 161 149 130 124 104 93
197 216 220 310 166 215 228 220 215 212 219 212 209 214 215 220 224 224 214 210 218 217 219 217 217 190 195 199 213 195 175 176 145 159 149 161 166 162 163 167 149 141 133 112
182 216 222 243 283 222 217 198 200 212 223 215 216 216 221 220 221 221 217 206 211 223 220 215 217 231 218 204 212 216 213 183 185 167 177 172 172 169 174 182 174 156 156 150
277 233 209 218 226 119 175 193 209 241 219 223 208 211 219 212 217 211 217 219 218 227 218 216 215 223 224 211 215 215 214 212 214 181 178 182 173 159 171 183 183 181 167 166
291 8 309 228 125 47 118 158 192 199 170 212 213 213 217 217 209 214 210 217 220 221 227 216 214 224 232 219 207 209 207 212 219 201 181 184 179 170 162 169 178 182 183 164
286 286 290 310 194 131 128 160 182 196 211 194 210 207 212 214 219 220 220 219 223 221 224 215 209 231 228 206 196 190 202 212 217 210 196 188 184 179 178 174 173 169 170 173
298 301 298 357 222 133 130 170 164 185 206 206 205 210 206 211 214 218 224 229 224 222 214 210 219 228 223 209 198 197 194 205 214 216 206 195 189 187 186 185 187 181 178 176
334 320 295 277 336 195 144 156 152 151 167 170 186 203 205 204 217 224 226 229 221 210 209 215 217 220 221 213 197 201 200 199 202 200 202 200 197 191 193 201 199 204 202 203